KINEIS-1B

Last updated on Thu Oct 23 2025 00:02:49 GMT+0000 (Coordinated Universal Time)

1 60079U 24114A 25295.46253707 .00001694 00000+0 23106-3 0 9995 2 60079 98.0037 315.6416 0003473 128.2063 231.9462 14.79968692 72238
UTC large
Height (km)
Speed (km/s)
/
Latitude / Longitude
Inclination (degrees)
Orbital Period (minutes)
Azimuth
Elevation
Range (km)
Doppler Factor

Next 0 passes for location: London (51.5072 / 0.1276)

Sorry there are no passes over London.